Glennallen, AK

3:49 AM AKST on January 24, 2017 (GMT -0900)
Gulkana

Weather History for PAGK - April, 2013

Change the Weather History Date:

Tuesday, April 2, 2013

  Actual Average Record
Temperature  
Mean Temperature 21 °F -  
Max Temperature 39 °F 35 °F 53 °F (1958)
Min Temperature 3 °F 13 °F -20 °F (1952)
Degree Days  
Heating Degree Days 44    
Moisture  
Dew Point 10 °F    
Average Humidity 57    
Maximum Humidity 88    
Minimum Humidity 27    
Precipitation  
Precipitation 0.00 in - - ()
Snow  
Snow 0.00 in - - ()
Snow Depth 7.00 in    
Sea Level Pressure  
Sea Level Pressure 30.14 in    
Wind  
Wind Speed 5 mph (SW)    
Max Wind Speed 8 mph    
Max Gust Speed -    
Visibility 10 miles    
Events      
Averages and records for this station are not official NWS values.
T = Trace of Precipitation, MM = Missing Value Source: NWS Daily Summary

Daily Weather History Graph

Daily Weather History Graph

Search for Another Location

Airport or City:

Trip Planner

Search our weather history database for the weather conditions in past years. The results will help you decide how hot, cold, wet, or windy it might be!

Date:

Astronomy

Apr. 02, 2013 Rise Set
Actual Time 6:58 AM AKDT 8:33 PM AKDT
Civil Twilight 6:12 AM AKDT 9:20 PM AKDT
Nautical Twilight 5:13 AM AKDT 10:20 PM AKDT
Astronomical Twilight 3:59 AM AKDT 11:35 PM AKDT
Moon 4:04 AM AKDT (4/2) 10:42 AM AKDT (4/2)
Length of Visible Light 15h 07m
Length of Day
13h 34m
Waning Gibbous, 54% of the Moon is Illuminated
Apr 2
Waning Gibbous
Apr 2
Last Quarter
Apr 10
New
Apr 18
First Quarter
Apr 25
Full

Hourly Weather History & Observations

Time (AKDT) Temp. Windchill Dew Point Humidity Pressure Visibility Wind Dir Wind Speed Gust Speed Precip Events Conditions
12:53 AM 21.9 °F 13.4 °F 10.0 °F 60% 29.99 in 10.0 mi WNW 6.9 mph - N/A   Clear
1:53 AM 19.9 °F 11.1 °F 10.0 °F 65% 30.02 in 10.0 mi NW 6.9 mph - N/A   Clear
2:53 AM 16.0 °F 10.4 °F 9.0 °F 74% 30.04 in 10.0 mi WNW 3.5 mph - N/A   Clear
3:53 AM 14.0 °F 3.9 °F 8.1 °F 77% 30.07 in 10.0 mi NW 6.9 mph - N/A   Clear
4:53 AM 8.1 °F -3.2 °F 3.0 °F 80% 30.10 in 10.0 mi NW 6.9 mph - N/A   Clear
5:53 AM 10.0 °F -0.9 °F 5.0 °F 80% 30.12 in 10.0 mi NW 6.9 mph - N/A   Partly Cloudy
6:53 AM 3.9 °F -6.9 °F 1.0 °F 88% 30.14 in 10.0 mi NW 5.8 mph - N/A   Partly Cloudy
7:53 AM 7.0 °F -1.7 °F 1.9 °F 80% 30.16 in 10.0 mi NNW 4.6 mph - N/A   Partly Cloudy
8:53 AM 15.1 °F - 6.1 °F 68% 30.16 in 10.0 mi Calm Calm - N/A   Partly Cloudy
9:53 AM 17.1 °F - 7.0 °F 65% 30.17 in 10.0 mi Calm Calm - N/A   Partly Cloudy
10:53 AM 21.9 °F - 8.1 °F 55% 30.17 in 10.0 mi Calm Calm - N/A   Partly Cloudy
11:53 AM 26.1 °F 20.5 °F 10.9 °F 53% 30.17 in 10.0 mi SSE 4.6 mph - N/A   Partly Cloudy
12:53 PM 30.0 °F - 10.9 °F 45% 30.17 in 10.0 mi Calm Calm - N/A   Partly Cloudy
1:53 PM 32.0 °F - 12.0 °F 44% 30.16 in 10.0 mi Calm Calm - N/A   Partly Cloudy
2:53 PM 35.1 °F 29.3 °F 12.9 °F 40% 30.16 in 10.0 mi South 6.9 mph - N/A   Partly Cloudy
3:53 PM 36.0 °F 31.1 °F 14.0 °F 41% 30.16 in 10.0 mi South 5.8 mph - N/A   Partly Cloudy
4:53 PM 37.9 °F 35.5 °F 10.9 °F 33% 30.16 in 10.0 mi Variable 3.5 mph - N/A   Partly Cloudy
5:53 PM 36.0 °F 31.1 °F 12.9 °F 39% 30.15 in 10.0 mi SSW 5.8 mph - N/A   Scattered Clouds
6:53 PM 35.1 °F 30.1 °F 12.9 °F 40% 30.16 in 10.0 mi South 5.8 mph - N/A   Mostly Cloudy
7:53 PM 34.0 °F 27.2 °F 14.0 °F 44% 30.16 in 10.0 mi SSE 8.1 mph - N/A   Mostly Cloudy
8:53 PM 30.0 °F 24.1 °F 14.0 °F 51% 30.17 in 10.0 mi South 5.8 mph - N/A   Mostly Cloudy
9:27 PM 30.0 °F 23.2 °F 14.0 °F 51% 30.07 in 10.0 mi SE 6.9 mph - N/A   Mostly Cloudy
9:53 PM 28.0 °F 21.7 °F 14.0 °F 56% 30.19 in 10.0 mi SSE 5.8 mph - N/A   Scattered Clouds
10:53 PM 27.0 °F 20.5 °F 14.0 °F 58% 30.19 in 10.0 mi SSE 5.8 mph - N/A   Clear
11:53 PM 24.1 °F 18.2 °F 14.0 °F 65% 30.21 in 10.0 mi South 4.6 mph - N/A   Clear